Location: Ahstedt
(52.2048°N, 10.1060°E)
Time: 06:18:26
(UTC+00:00)

GP-B - Pass Details

Date: 18 January 2026
Orbit: 618 x 622 km, 89.8° (Epoch: 18 February)

Event Time Altitude Azimuth Distance (km) Brightness Sun altitude
Rises 06:25:56 0° 5° (N) 2,912 6.3 -7.9°
Reaches altitude 10° 06:28:13 10° 10° (N) 2,000 5.5 -7.6°
Maximum altitude 06:32:29 49° 86° (E) 801 4.1 -7.0°
Drops below altitude 10° 06:36:43 10° 162° (SSE) 1,981 6.3 -6.4°
Sets 06:38:58 0° 168° (SSE) 2,882 7.1 -6.1°
